Location: Street
(51.1247°N, 2.7429°W)
Time: 09:54:46
(UTC+00:00)

X-37B - Visible Passes

Search period start: 27 October 2020 00:00
Search period end: 06 November 2020 00:00
Orbit: 382 x 392 km, 45.0° (Epoch: 15 October)

Date Brightness Start Highest point End Pass type
(mag) Time Alt. Az. Time Alt. Az. Time Alt. Az.
03 Nov 3.5 05:38:43 10° S 05:40:13 13° SSE 05:41:44 10° SE visible
04 Nov 2.8 06:15:15 10° SW 06:17:48 22° SSE 06:20:20 10° ESE visible
05 Nov 3.0 05:17:59 13° SSW 05:19:26 17° SSE 05:21:38 10° ESE visible
